| time (UTC) | temp F | wind direction | speed knots | gust knots | rain 1hr in | rain 24hr in | rain mn in | humidity % | barometer mb |
| 20260507103347 | 72 | 198 | 5.2 | 12.2 | 0.00 | 0.35 | 0.06 | 55 | 1013.4 |
| 20260507102330 | 72 | 170 | 5.2 | 11.3 | 0.00 | 0.35 | 0.06 | 57 | 1013.5 |
| 20260507101323 | 71 | 304 | 1.7 | 9.6 | 0.00 | 0.35 | 0.06 | 56 | 1013.4 |
| 20260507100347 | 71 | 178 | 3.5 | 12.2 | 0.00 | 0.35 | 0.06 | 56 | 1013.6 |
| 20260507095348 | 71 | 238 | 6.1 | 10.4 | 0.00 | 0.35 | 0.06 | 58 | 1013.6 |
| 20260507094336 | 69 | 233 | 6.1 | 12.2 | 0.00 | 0.35 | 0.06 | 59 | 1013.7 |
| 20260507093348 | 69 | 195 | 7.8 | 13.9 | 0.04 | 0.35 | 0.06 | 60 | 1013.8 |
| 20260507092348 | 68 | 232 | 2.6 | 6.1 | 0.08 | 0.35 | 0.06 | 59 | 1013.8 |
| 20260507091320 | 67 | 265 | 2.6 | 4.3 | 0.08 | 0.35 | 0.06 | 52 | 1013.9 |
| 20260507090350 | 66 | 262 | 2.6 | 4.3 | 0.08 | 0.35 | 0.06 | 49 | 1013.8 |
| 20260507085321 | 67 | 240 | 2.6 | 5.2 | 0.08 | 0.35 | 0.06 | 45 | 1014.1 |
| 20260507084333 | 67 | 242 | 2.6 | 7.0 | 0.08 | 0.35 | 0.06 | 47 | 1013.8 |
| 20260507083353 | 67 | 300 | 1.7 | 7.8 | 0.04 | 0.31 | 0.05 | 49 | 1013.8 |
| 20260507082324 | 68 | 328 | 3.5 | 7.8 | 0.00 | 0.28 | 0.04 | 56 | 1013.6 |
| 20260507081319 | 69 | 253 | 6.1 | 10.4 | 0.00 | 0.28 | 0.04 | 58 | 1013.5 |
| 20260507080410 | 69 | 197 | 1.7 | 5.2 | 0.00 | 0.28 | 0.04 | 50 | 1013.4 |
| 20260507075329 | 68 | 112 | 2.6 | 5.2 | 0.00 | 0.31 | 0.04 | 47 | 1013.5 |
| 20260507074359 | 68 | 88 | 0.0 | 6.1 | 0.00 | 0.31 | 0.04 | 46 | 1013.6 |
| 20260507073349 | 68 | 215 | 2.6 | 5.2 | 0.00 | 0.31 | 0.04 | 49 | 1013.5 |
| 20260507072350 | 67 | 108 | 1.7 | 5.2 | 0.00 | 0.31 | 0.04 | 42 | 1013.5 |
| 20260507071347 | 67 | 221 | 1.7 | 4.3 | 0.00 | 0.31 | 0.04 | 32 | 1013.5 |
| 20260507070354 | 66 | 210 | 0.9 | 5.2 | 0.00 | 0.31 | 0.04 | 10 | 1013.5 |
| 20260507064401 | 64 | 236 | 1.7 | 4.3 | 0.00 | 0.55 | 0.04 | 1 | 1013.3 |
| 20260507063354 | 63 | 221 | 0.9 | 3.5 | 0.00 | 0.55 | 0.04 | 1 | 1013.2 |
| 20260507062334 | 63 | 268 | 0.9 | 4.3 | 0.00 | 0.55 | 0.04 | 1 | 1013.2 |
| 20260507061319 | 63 | 234 | 0.9 | 3.5 | 0.00 | 0.55 | 0.04 | 1 | 1013.2 |
| 20260507060353 | 62 | 257 | 0.9 | 1.7 | 0.00 | 0.55 | 0.04 | 1 | 1013.2 |
| 20260507055348 | 61 | 205 | 0.0 | 0.0 | 0.00 | 0.55 | 0.04 | 1 | 1013.1 |
| 20260507054320 | 61 | 205 | 0.0 | 0.0 | 0.00 | 0.55 | 0.04 | 1 | 1013.2 |
| 20260507053336 | 61 | 205 | 0.0 | 0.9 | 0.00 | 0.55 | 0.04 | 1 | 1013.1 |
| 20260507052342 | 61 | 205 | 0.0 | 1.7 | 0.00 | 0.55 | 0.04 | 1 | 1013.0 |
| 20260507051348 | 61 | 205 | 0.9 | 1.7 | 0.00 | 0.55 | 0.04 | 1 | 1013.0 |
| 20260507050333 | 61 | 195 | 0.9 | 2.6 | 0.00 | 0.55 | 0.04 | 1 | 1012.9 |
| 20260507045350 | 0 | 0.0 | 0.0 | 0.00 | 0.55 | 0.04 | 1012.8 | ||
| 20260507044346 | 0 | 0.0 | 0.0 | 0.00 | 0.55 | 0.04 | 1012.7 | ||
| 20260507042339 | 0 | 0.0 | 0.0 | 0.00 | 0.55 | 0.04 | 1012.3 | ||
| 20260507041403 | 0 | 0.0 | 0.0 | 0.04 | 0.55 | 0.04 | 1012.5 | ||
| 20260507040333 | 0 | 0.0 | 0.0 | 0.04 | 0.55 | 0.04 | 1012.4 | ||
| 20260507035334 | 0 | 0.0 | 0.0 | 0.08 | 0.55 | 0.04 | 1012.2 | ||
| 20260507033336 | 0 | 0.0 | 0.0 | 0.12 | 0.55 | 0.04 | 1012.1 | ||
| 20260507031351 | 62 | 144 | 0.0 | 0.0 | 0.12 | 0.51 | 0.03 | 6 | 1012.2 |
| 20260507030358 | 62 | 144 | 0.0 | 1.7 | 0.16 | 0.51 | 0.03 | 12 | 1012.2 |
| 20260507025330 | 63 | 120 | 0.9 | 1.7 | 0.12 | 0.47 | 0.02 | 18 | 1012.2 |
| 20260507024323 | 63 | 153 | 0.0 | 2.6 | 0.08 | 0.43 | 0.02 | 23 | 1012.1 |
| 20260507023339 | 63 | 239 | 0.0 | 3.5 | 0.08 | 0.43 | 0.02 | 27 | 1012.0 |
| 20260507022342 | 63 | 257 | 1.7 | 4.3 | 0.04 | 0.39 | 0.01 | 29 | 1011.7 |
| 20260507021331 | 64 | 290 | 1.7 | 4.3 | 0.04 | 0.39 | 0.01 | 31 | 1011.6 |
| 20260507020343 | 64 | 231 | 0.0 | 0.0 | 0.00 | 0.35 | 0.00 | 32 | 1011.7 |
| 20260507015342 | 64 | 242 | 0.0 | 1.7 | 0.00 | 0.35 | 0.00 | 33 | 1011.8 |
| 20260507014334 | 64 | 238 | 1.7 | 3.5 | 0.00 | 0.35 | 0.00 | 33 | 1011.8 |
| 20260507013342 | 64 | 234 | 1.7 | 3.5 | 0.00 | 0.35 | 0.00 | 34 | 1011.8 |
| 20260507012345 | 64 | 232 | 0.0 | 0.0 | 0.00 | 0.35 | 0.00 | 36 | 1011.7 |
| 20260507011318 | 64 | 232 | 0.0 | 1.7 | 0.00 | 0.35 | 0.00 | 38 | 1011.7 |
| 20260507010354 | 64 | 232 | 0.0 | 2.6 | 0.00 | 0.35 | 0.00 | 38 | 1011.6 |
| 20260507004343 | 64 | 146 | 0.9 | 1.7 | 0.00 | 0.35 | 0.00 | 41 | 1011.7 |
| 20260507003346 | 64 | 129 | 0.0 | 0.9 | 0.00 | 0.35 | 0.00 | 44 | 1011.7 |
| 20260507002330 | 64 | 129 | 0.9 | 1.7 | 0.00 | 0.35 | 0.00 | 46 | 1011.7 |
| 20260507001329 | 65 | 238 | 0.0 | 1.7 | 0.00 | 0.35 | 0.00 | 48 | 1011.8 |
| 20260507000335 | 65 | 177 | 0.9 | 1.7 | 0.00 | 0.35 | 0.00 | 51 | 1011.8 |
| 20260506235335 | 65 | 113 | 0.0 | 0.0 | 0.00 | 0.35 | 0.00 | 54 | 1011.8 |
| 20260506234321 | 65 | 36 | 0.0 | 0.0 | 0.00 | 0.35 | 0.00 | 56 | 1011.9 |
| 20260506233401 | 65 | 289 | 0.0 | 0.0 | 0.00 | 0.35 | 0.00 | 58 | 1011.9 |
| 20260506232344 | 66 | 201 | 0.0 | 0.0 | 0.00 | 0.35 | 0.00 | 58 | 1011.8 |
| 20260506231323 | 66 | 201 | 0.9 | 2.6 | 0.00 | 0.35 | 0.00 | 59 | 1011.7 |
| 20260506230336 | 66 | 240 | 0.9 | 3.5 | 0.00 | 0.35 | 0.00 | 59 | 1011.8 |
| 20260506225319 | 66 | 218 | 1.7 | 3.5 | 0.00 | 0.35 | 0.00 | 59 | 1011.8 |
| 20260506224402 | 66 | 247 | 0.0 | 1.7 | 0.00 | 0.35 | 0.00 | 58 | 1011.9 |
| 20260506223337 | 66 | 150 | 0.0 | 1.7 | 0.00 | 0.35 | 0.00 | 58 | 1012.0 |
| 20260506221331 | 66 | 144 | 0.9 | 3.5 | 0.00 | 0.35 | 0.00 | 57 | 1012.0 |
| 20260506220348 | 66 | 126 | 1.7 | 4.3 | 0.00 | 0.35 | 0.00 | 58 | 1012.0 |
| 20260506215340 | 66 | 195 | 1.7 | 4.3 | 0.00 | 0.35 | 0.07 | 59 | 1011.9 |
| 20260506214329 | 66 | 274 | 0.9 | 3.5 | 0.00 | 0.35 | 0.07 | 60 | 1011.9 |
| 20260506213333 | 66 | 209 | 0.9 | 7.0 | 0.00 | 0.35 | 0.07 | 60 | 1011.7 |
| 20260506212324 | 66 | 212 | 3.5 | 6.1 | 0.00 | 0.35 | 0.07 | 60 | 1011.7 |
| 20260506211322 | 66 | 233 | 2.6 | 6.1 | 0.00 | 0.35 | 0.07 | 60 | 1011.9 |
| 20260506210332 | 66 | 195 | 1.7 | 3.5 | 0.00 | 0.35 | 0.07 | 59 | 1011.9 |
| 20260506205321 | 66 | 196 | 1.7 | 7.8 | 0.00 | 0.35 | 0.07 | 59 | 1012.0 |
| 20260506204320 | 66 | 214 | 2.6 | 8.7 | 0.00 | 0.35 | 0.07 | 58 | 1011.8 |
| 20260506203340 | 66 | 217 | 2.6 | 8.7 | 0.00 | 0.35 | 0.07 | 55 | 1011.8 |
| 20260506202343 | 66 | 207 | 3.5 | 11.3 | 0.00 | 0.35 | 0.07 | 50 | 1011.7 |
| 20260506201341 | 65 | 227 | 5.2 | 10.4 | 0.00 | 0.35 | 0.07 | 42 | 1011.8 |
| 20260506200332 | 66 | 139 | 0.9 | 1.7 | 0.00 | 0.35 | 0.07 | 33 | 1011.8 |
| 20260506195322 | 66 | 106 | 0.0 | 2.6 | 0.00 | 0.35 | 0.07 | 34 | 1011.8 |
| 20260506194323 | 66 | 94 | 0.9 | 2.6 | 0.00 | 0.35 | 0.07 | 36 | 1011.7 |
| 20260506193349 | 66 | 135 | 0.9 | 3.5 | 0.00 | 0.35 | 0.07 | 35 | 1011.5 |
| 20260506192343 | 66 | 235 | 0.9 | 1.7 | 0.00 | 0.35 | 0.07 | 34 | 1011.4 |
| 20260506191345 | 66 | 224 | 0.9 | 5.2 | 0.00 | 0.35 | 0.07 | 33 | 1011.4 |
| 20260506190355 | 66 | 127 | 1.7 | 4.3 | 0.00 | 0.35 | 0.07 | 33 | 1011.2 |
| 20260506185321 | 66 | 140 | 0.0 | 5.2 | 0.00 | 0.35 | 0.07 | 37 | 1011.1 |
| 20260506184322 | 66 | 101 | 2.6 | 5.2 | 0.00 | 0.35 | 0.07 | 38 | 1010.9 |
| 20260506183348 | 66 | 217 | 0.0 | 3.5 | 0.00 | 0.35 | 0.07 | 39 | 1010.7 |
| 20260506182321 | 66 | 233 | 0.9 | 2.6 | 0.00 | 0.35 | 0.07 | 39 | 1010.7 |
| 20260506181322 | 66 | 206 | 0.9 | 2.6 | 0.00 | 0.35 | 0.07 | 39 | 1010.8 |
| 20260506180333 | 66 | 216 | 0.0 | 2.6 | 0.00 | 0.35 | 0.07 | 38 | 1010.8 |
| 20260506175326 | 66 | 153 | 1.7 | 3.5 | 0.00 | 0.35 | 0.07 | 36 | 1010.8 |
| 20260506174329 | 66 | 117 | 0.9 | 5.2 | 0.00 | 0.35 | 0.07 | 32 | 1010.7 |
| 20260506173338 | 66 | 123 | 2.6 | 5.2 | 0.04 | 0.35 | 0.07 | 27 | 1010.7 |
| 20260506172333 | 66 | 173 | 0.9 | 3.5 | 0.08 | 0.35 | 0.07 | 22 | 1010.6 |
| 20260506171324 | 66 | 127 | 0.9 | 3.5 | 0.08 | 0.35 | 0.07 | 21 | 1010.4 |
| 20260506170331 | 66 | 137 | 1.7 | 3.5 | 0.08 | 0.35 | 0.07 | 21 | 1010.5 |
| 20260506165348 | 66 | 120 | 1.7 | 2.6 | 0.08 | 0.35 | 0.07 | 20 | 1010.6 |
| 20260506164323 | 66 | 162 | 1.7 | 9.6 | 0.08 | 0.35 | 0.07 | 27 | 1010.6 |
| 20260506163407 | 68 | 222 | 4.3 | 12.2 | 0.04 | 0.31 | 0.06 | 6 | 1010.9 |
| 20260506162356 | 67 | 128 | 3.5 | 5.2 | 0.00 | 0.28 | 0.06 | 1 | 1010.6 |
| 20260506161325 | 67 | 49 | 5.2 | 7.8 | 0.00 | 0.28 | 0.06 | 1 | 1010.4 |
| 20260506160414 | 67 | 97 | 2.6 | 7.8 | 0.00 | 0.28 | 0.06 | 1 | 1010.5 |
| 20260506155408 | 67 | 39 | 4.3 | 8.7 | 0.00 | 0.28 | 0.06 | 1 | 1010.6 |
| 20260506154326 | 67 | 106 | 1.7 | 3.5 | 0.00 | 0.28 | 0.06 | 1 | 1010.4 |
| 20260506153355 | 67 | 86 | 3.5 | 7.8 | 0.00 | 0.28 | 0.06 | 1 | 1010.4 |
| 20260506152330 | 67 | 70 | 6.1 | 9.6 | 0.00 | 0.28 | 0.06 | 1 | 1010.4 |
| 20260506151341 | 67 | 98 | 5.2 | 9.6 | 0.00 | 0.28 | 0.06 | 1 | 1010.5 |
| 20260506150408 | 67 | 114 | 5.2 | 10.4 | 0.00 | 0.28 | 0.06 | 1 | 1010.3 |
| 20260506145333 | 67 | 91 | 6.1 | 11.3 | 0.00 | 0.28 | 0.06 | 1 | 1010.3 |
| 20260506144347 | 68 | 94 | 4.3 | 9.6 | 0.00 | 0.28 | 0.06 | 7 | 1010.4 |
| 20260506143335 | 68 | 104 | 3.5 | 7.8 | 0.00 | 0.28 | 0.06 | 6 | 1010.3 |
| 20260506142350 | 67 | 102 | 4.3 | 7.0 | 0.00 | 0.28 | 0.06 | 2 | 1010.3 |
| 20260506141334 | 67 | 105 | 5.2 | 9.6 | 0.00 | 0.28 | 0.06 | 1 | 1010.4 |
| 20260506140356 | 67 | 76 | 4.3 | 7.8 | 0.00 | 0.28 | 0.06 | 1 | 1010.4 |
| 20260506135353 | 67 | 98 | 5.2 | 7.8 | 0.00 | 0.28 | 0.06 | 1 | 1010.6 |
| 20260506134342 | 67 | 32 | 1.7 | 6.1 | 0.00 | 0.28 | 0.06 | 1 | 1010.7 |
| 20260506133332 | 67 | 60 | 4.3 | 7.8 | 0.00 | 0.28 | 0.06 | 1 | 1010.8 |
| 20260506132331 | 67 | 94 | 5.2 | 9.6 | 0.00 | 0.28 | 0.06 | 3 | 1010.8 |
| 20260506131339 | 68 | 88 | 5.2 | 8.7 | 0.00 | 0.28 | 0.06 | 7 | 1011.0 |
| 20260506130330 | 67 | 59 | 5.2 | 10.4 | 0.00 | 0.28 | 0.06 | 1 | 1011.1 |
| 20260506125342 | 67 | 49 | 6.1 | 10.4 | 0.00 | 0.28 | 0.06 | 1 | 1011.1 |
| 20260506124326 | 66 | 98 | 5.2 | 7.8 | 0.00 | 0.28 | 0.06 | 1 | 1011.3 |
| 20260506123358 | 67 | 59 | 5.2 | 10.4 | 0.00 | 0.28 | 0.06 | 3 | 1011.2 |
| 20260506122321 | 67 | 89 | 4.3 | 7.8 | 0.00 | 0.28 | 0.06 | 1 | 1011.2 |
| 20260506121323 | 66 | 88 | 3.5 | 9.6 | 0.00 | 0.28 | 0.06 | 1 | 1011.2 |
| 20260506120351 | 66 | 96 | 6.1 | 10.4 | 0.00 | 0.28 | 0.06 | 1 | 1011.1 |
| 20260506115334 | 66 | 94 | 2.6 | 5.2 | 0.00 | 0.28 | 0.06 | 1 | 1011.1 |
| 20260506114327 | 66 | 69 | 1.7 | 8.7 | 0.00 | 0.28 | 0.06 | 1 | 1011.2 |
| 20260506113334 | 66 | 103 | 5.2 | 8.7 | 0.00 | 0.28 | 0.06 | 1 | 1011.1 |
| 20260506112342 | 66 | 94 | 6.1 | 11.3 | 0.00 | 0.28 | 0.06 | 1 | 1011.2 |
| 20260506111323 | 66 | 90 | 6.1 | 12.2 | 0.00 | 0.28 | 0.06 | 1 | 1011.1 |
| 20260506110335 | 66 | 60 | 7.8 | 13.9 | 0.00 | 0.28 | 0.06 | 1 | 1011.2 |
| 20260506105333 | 66 | 60 | 7.0 | 11.3 | 0.00 | 0.28 | 0.06 | 1 | 1011.3 |
| 20260506104343 | 66 | 44 | 7.0 | 11.3 | 0.00 | 0.28 | 0.06 | 1 | 1011.4 |